Time,TemperatureF,DewpointF,PressureIn,WindDirection,WindDirectionDegrees,WindSpeedMPH,WindSpeedGustMPH,Humidity,HourlyPrecipIn,Conditions,Clouds,dailyrainin,SolarRadiationWatts/m^2,SoftwareType,DateUTC
2013-06-13 00:00:00,73.5,55.8,29.87,NNE,24,10.0,23.0,54,0.00,,---,0.00,0.00,VWS V14.01,2013-06-13 05:00:00,
2013-06-13 00:02:00,73.3,55.7,29.87,North,9,14.0,20.0,54,0.00,,---,0.00,0.00,VWS V14.01,2013-06-13 05:02:00,
2013-06-13 00:07:00,73.2,56.1,29.87,NNW,339,12.0,20.0,55,0.00,,---,0.00,0.00,VWS V14.01,2013-06-13 05:07:00,
2013-06-13 00:12:00,72.8,55.7,29.87,NNE,26,19.0,24.0,55,0.00,,---,0.00,0.00,VWS V14.01,2013-06-13 05:12:00,
2013-06-13 00:17:00,72.5,55.9,29.87,North,360,23.0,24.0,56,0.00,,---,0.00,0.00,VWS V14.01,2013-06-13 05:17:00,
2013-06-13 00:22:00,72.3,55.7,29.87,North,9,17.0,24.0,56,0.00,,---,0.00,0.00,VWS V14.01,2013-06-13 05:22:00,
2013-06-13 00:27:00,72.0,56.0,29.88,NNE,18,12.0,24.0,57,0.00,,---,0.00,0.00,VWS V14.01,2013-06-13 05:27:00,
2013-06-13 00:30:00,75.6,57.3,29.87,North,11,15.0,28.0,53,0.00,,---,0.00,0.00,VWS V14.01,2013-06-13 05:30:00,
2013-06-13 00:37:00,71.3,55.8,29.89,NE,38,11.0,11.0,58,0.00,,---,0.00,0.00,VWS V14.01,2013-06-13 05:37:00,
2013-06-13 00:42:00,71.1,55.6,29.89,ENE,65,11.0,16.0,58,0.00,,---,0.00,0.00,VWS V14.01,2013-06-13 05:42:00,
2013-06-13 00:47:00,70.8,55.3,29.89,NE,39,7.0,16.0,58,0.00,,---,0.00,0.00,VWS V14.01,2013-06-13 05:47:00,
2013-06-13 00:52:00,70.6,55.1,29.90,NNE,21,10.0,18.0,58,0.00,,---,0.00,0.00,VWS V14.01,2013-06-13 05:52:00,
2013-06-13 00:57:00,70.4,54.9,29.90,NE,53,8.0,18.0,58,0.00,,---,0.00,0.00,VWS V14.01,2013-06-13 05:57:00,
2013-06-13 01:00:00,70.3,54.8,29.90,North,5,13.0,18.0,58,0.00,,---,0.00,0.00,VWS V14.01,2013-06-13 06:00:00,
2013-06-13 01:02:00,70.3,54.8,29.90,NNE,25,14.0,17.0,58,0.00,,---,0.00,0.00,VWS V14.01,2013-06-13 06:02:00,
2013-06-13 01:07:00,69.9,54.5,29.90,NE,34,7.0,19.0,58,0.00,,---,0.00,0.00,VWS V14.01,2013-06-13 06:07:00,
2013-06-13 01:12:00,69.8,54.4,29.90,NE,49,5.0,19.0,58,0.00,,---,0.00,0.00,VWS V14.01,2013-06-13 06:12:00,
2013-06-13 01:17:00,69.4,54.0,29.90,NNE,26,11.0,19.0,58,0.00,,---,0.00,0.00,VWS V14.01,2013-06-13 06:17:00,
2013-06-13 01:22:00,69.3,53.9,29.90,NNW,341,4.0,19.0,58,0.00,,---,0.00,0.00,VWS V14.01,2013-06-13 06:22:00,
2013-06-13 01:27:00,69.1,53.7,29.91,North,355,8.0,19.0,58,0.00,,---,0.00,0.00,VWS V14.01,2013-06-13 06:27:00,
2013-06-13 01:30:00,69.1,53.7,29.92,NNE,18,7.0,19.0,58,0.00,,---,0.00,0.00,VWS V14.01,2013-06-13 06:30:00,
2013-06-13 01:32:00,68.9,53.5,29.92,NNE,13,9.0,11.0,58,0.00,,---,0.00,0.00,VWS V14.01,2013-06-13 06:32:00,
2013-06-13 01:37:00,68.8,53.4,29.92,NNE,18,6.0,11.0,58,0.00,,---,0.00,0.00,VWS V14.01,2013-06-13 06:37:00,
2013-06-13 01:51:00,68.3,53.4,29.93,NE,36,8.0,8.0,59,0.00,,---,0.00,0.00,VWS V14.01,2013-06-13 06:51:00,
2013-06-13 01:56:00,68.1,53.2,29.93,NE,37,8.0,12.0,59,0.00,,---,0.00,0.00,VWS V14.01,2013-06-13 06:56:00,
2013-06-13 02:00:00,68.1,53.2,29.93,NNE,31,6.0,12.0,59,0.00,,---,0.00,0.00,VWS V14.01,2013-06-13 07:00:00,
2013-06-13 02:01:00,67.9,53.1,29.93,NNE,18,5.0,10.0,59,0.00,,---,0.00,0.00,VWS V14.01,2013-06-13 07:01:00,
2013-06-13 02:07:00,67.8,53.4,29.93,NE,36,7.0,11.0,60,0.00,,---,0.00,0.00,VWS V14.01,2013-06-13 07:07:00,
2013-06-13 02:12:00,67.6,53.2,29.92,NE,41,10.0,13.0,60,0.00,,---,0.00,0.00,VWS V14.01,2013-06-13 07:12:00,
2013-06-13 02:17:00,67.4,53.0,29.93,NNE,24,9.0,13.0,60,0.00,,---,0.00,0.00,VWS V14.01,2013-06-13 07:17:00,
2013-06-13 02:22:00,67.3,53.4,29.93,NNE,31,5.0,13.0,61,0.00,,---,0.00,0.00,VWS V14.01,2013-06-13 07:22:00,
2013-06-13 02:27:00,66.9,53.0,29.92,NE,39,7.0,13.0,61,0.00,,---,0.00,0.00,VWS V14.01,2013-06-13 07:27:00,
2013-06-13 02:30:00,66.9,53.5,29.92,NNE,33,8.0,13.0,62,0.00,,---,0.00,0.00,VWS V14.01,2013-06-13 07:30:00,
2013-06-13 02:32:00,66.8,53.4,29.92,NNE,27,6.0,9.0,62,0.00,,---,0.00,0.00,VWS V14.01,2013-06-13 07:32:00,
2013-06-13 02:37:00,66.6,53.2,29.93,NE,52,8.0,10.0,62,0.00,,---,0.00,0.00,VWS V14.01,2013-06-13 07:37:00,
2013-06-13 02:42:00,66.4,53.0,29.93,ENE,63,7.0,10.0,62,0.00,,---,0.00,0.00,VWS V14.01,2013-06-13 07:42:00,
2013-06-13 02:47:00,66.4,53.4,29.93,NNE,26,14.0,14.0,63,0.00,,---,0.00,0.00,VWS V14.01,2013-06-13 07:47:00,
2013-06-13 02:52:00,66.3,53.3,29.93,NNE,13,7.0,17.0,63,0.00,,---,0.00,0.00,VWS V14.01,2013-06-13 07:52:00,
2013-06-13 02:57:00,66.1,53.2,29.93,NE,52,6.0,17.0,63,0.00,,---,0.00,0.00,VWS V14.01,2013-06-13 07:57:00,
2013-06-13 03:00:00,66.0,53.5,29.93,NNE,19,3.0,17.0,64,0.00,,---,0.00,0.00,VWS V14.01,2013-06-13 08:00:00,
2013-06-13 03:02:00,65.8,53.3,29.94,NNE,25,10.0,10.0,64,0.00,,---,0.00,0.00,VWS V14.01,2013-06-13 08:02:00,
2013-06-13 03:07:00,65.6,53.1,29.94,North,5,6.0,12.0,64,0.00,,---,0.00,0.00,VWS V14.01,2013-06-13 08:07:00,
2013-06-13 03:12:00,65.5,53.4,29.95,NE,42,5.0,12.0,65,0.00,,---,0.00,0.00,VWS V14.01,2013-06-13 08:12:00,
2013-06-13 03:17:00,65.3,53.2,29.95,NNE,21,6.0,12.0,65,0.00,,---,0.00,0.00,VWS V14.01,2013-06-13 08:17:00,
2013-06-13 03:22:00,65.2,53.2,29.95,NNE,25,6.0,12.0,65,0.00,,---,0.00,0.00,VWS V14.01,2013-06-13 08:22:00,
2013-06-13 03:27:00,64.8,53.2,29.95,NE,34,6.0,12.0,66,0.00,,---,0.00,0.00,VWS V14.01,2013-06-13 08:27:00,
2013-06-13 03:30:00,64.8,53.2,29.95,ENE,59,7.0,13.0,66,0.00,,---,0.00,0.00,VWS V14.01,2013-06-13 08:30:00,
2013-06-13 03:32:00,64.7,53.1,29.94,NE,38,7.0,10.0,66,0.00,,---,0.00,0.00,VWS V14.01,2013-06-13 08:32:00,
2013-06-13 03:37:00,64.5,53.3,29.94,NE,40,9.0,11.0,67,0.00,,---,0.00,0.00,VWS V14.01,2013-06-13 08:37:00,
2013-06-13 03:42:00,64.3,53.5,29.94,NE,36,7.0,12.0,68,0.00,,---,0.00,0.00,VWS V14.01,2013-06-13 08:42:00,
2013-06-13 03:47:00,64.0,53.2,29.94,NNE,31,7.0,12.0,68,0.00,,---,0.00,0.00,VWS V14.01,2013-06-13 08:47:00,
2013-06-13 03:52:00,63.9,53.1,29.94,NE,34,8.0,13.0,68,0.00,,---,0.00,0.00,VWS V14.01,2013-06-13 08:52:00,
2013-06-13 03:57:00,63.7,53.3,29.93,NNE,19,5.0,13.0,69,0.00,,---,0.00,0.00,VWS V14.01,2013-06-13 08:57:00,
2013-06-13 04:00:00,63.5,53.2,29.93,NNE,24,5.0,13.0,69,0.00,,---,0.00,0.00,VWS V14.01,2013-06-13 09:00:00,
2013-06-13 04:02:00,63.5,53.2,29.93,NE,50,11.0,11.0,69,0.00,,---,0.00,0.00,VWS V14.01,2013-06-13 09:02:00,
2013-06-13 04:07:00,63.4,53.5,29.93,NE,40,5.0,11.0,70,0.00,,---,0.00,0.00,VWS V14.01,2013-06-13 09:07:00,
2013-06-13 04:12:00,63.2,53.3,29.93,NNE,15,6.0,11.0,70,0.00,,---,0.00,0.00,VWS V14.01,2013-06-13 09:12:00,
2013-06-13 04:17:00,63.1,53.2,29.94,NE,46,3.0,11.0,70,0.00,,---,0.00,0.00,VWS V14.01,2013-06-13 09:17:00,
2013-06-13 04:22:00,62.9,53.4,29.94,NE,34,5.0,11.0,71,0.00,,---,0.00,0.00,VWS V14.01,2013-06-13 09:22:00,
2013-06-13 04:27:00,62.9,53.4,29.95,NNE,31,2.0,11.0,71,0.00,,---,0.00,0.00,VWS V14.01,2013-06-13 09:27:00,
2013-06-13 04:30:00,62.7,53.2,29.95,NE,44,4.0,11.0,71,0.00,,---,0.00,0.00,VWS V14.01,2013-06-13 09:30:00,
2013-06-13 04:32:00,62.7,53.2,29.95,ENE,58,4.0,5.0,71,0.00,,---,0.00,0.00,VWS V14.01,2013-06-13 09:32:00,
2013-06-13 04:37:00,62.7,53.2,29.95,NE,40,3.0,9.0,71,0.00,,---,0.00,0.00,VWS V14.01,2013-06-13 09:37:00,
2013-06-13 04:42:00,62.6,53.1,29.95,NNE,27,6.0,9.0,71,0.00,,---,0.00,0.00,VWS V14.01,2013-06-13 09:42:00,
2013-06-13 04:47:00,62.4,53.3,29.95,NNE,30,2.0,9.0,72,0.00,,---,0.00,0.00,VWS V14.01,2013-06-13 09:47:00,
2013-06-13 04:52:00,62.4,53.3,29.96,NE,42,1.0,9.0,72,0.00,,---,0.00,0.00,VWS V14.01,2013-06-13 09:52:00,
2013-06-13 04:57:00,62.3,53.2,29.95,NNE,33,6.0,9.0,72,0.00,,---,0.00,0.00,VWS V14.01,2013-06-13 09:57:00,
2013-06-13 05:00:00,62.3,53.2,29.96,NE,36,5.0,9.0,72,0.00,,---,0.00,0.00,VWS V14.01,2013-06-13 10:00:00,
2013-06-13 05:02:00,62.3,53.2,29.96,NNE,33,2.0,5.0,72,0.00,,---,0.00,0.00,VWS V14.01,2013-06-13 10:02:00,
2013-06-13 05:07:00,62.1,53.0,29.95,NNE,23,6.0,7.0,72,0.00,,---,0.00,0.00,VWS V14.01,2013-06-13 10:07:00,
2013-06-13 05:12:00,62.1,53.3,29.95,NE,38,4.0,8.0,73,0.00,,---,0.00,0.00,VWS V14.01,2013-06-13 10:12:00,
2013-06-13 05:17:00,62.0,53.3,29.96,NNE,19,6.0,8.0,73,0.00,,---,0.00,0.00,VWS V14.01,2013-06-13 10:17:00,
2013-06-13 05:22:00,62.0,53.3,29.96,NNE,21,6.0,8.0,73,0.00,,---,0.00,0.00,VWS V14.01,2013-06-13 10:22:00,
2013-06-13 05:27:00,62.0,53.3,29.96,NNE,30,5.0,8.0,73,0.00,,---,0.00,0.00,VWS V14.01,2013-06-13 10:27:00,
2013-06-13 05:30:00,62.0,53.3,29.96,NNE,28,7.0,10.0,73,0.00,,---,0.00,0.00,VWS V14.01,2013-06-13 10:30:00,
2013-06-13 05:32:00,62.0,53.3,29.96,NE,41,6.0,8.0,73,0.00,,---,0.00,0.00,VWS V14.01,2013-06-13 10:32:00,
2013-06-13 05:37:00,62.0,53.3,29.96,NE,34,3.0,8.0,73,0.00,,---,0.00,0.00,VWS V14.01,2013-06-13 10:37:00,
2013-06-13 05:42:00,62.0,53.3,29.97,NE,35,4.0,8.0,73,0.00,,---,0.00,0.00,VWS V14.01,2013-06-13 10:42:00,
2013-06-13 05:47:00,62.0,53.3,29.96,NE,54,7.0,8.0,73,0.00,,---,0.00,0.00,VWS V14.01,2013-06-13 10:47:00,
2013-06-13 05:52:00,61.8,53.1,29.96,North,5,4.0,8.0,73,0.00,,---,0.00,0.00,VWS V14.01,2013-06-13 10:52:00,
2013-06-13 05:57:00,61.8,53.1,29.96,NNE,31,5.0,8.0,73,0.00,,---,0.00,0.00,VWS V14.01,2013-06-13 10:57:00,
2013-06-13 06:00:00,61.6,52.9,29.96,NE,46,6.0,8.0,73,0.00,,---,0.00,0.00,VWS V14.01,2013-06-13 11:00:00,
2013-06-13 06:02:00,61.6,52.9,29.97,NE,48,3.0,6.0,73,0.00,,---,0.00,0.00,VWS V14.01,2013-06-13 11:02:00,
2013-06-13 06:07:00,61.6,52.9,29.96,NNE,28,6.0,9.0,73,0.00,,---,0.00,5.00,VWS V14.01,2013-06-13 11:07:00,
2013-06-13 06:12:00,61.6,52.9,29.97,NNE,24,5.0,9.0,73,0.00,,---,0.00,11.00,VWS V14.01,2013-06-13 11:12:00,
2013-06-13 06:17:00,61.6,52.9,29.96,NE,36,5.0,9.0,73,0.00,,---,0.00,14.00,VWS V14.01,2013-06-13 11:17:00,
2013-06-13 06:22:00,61.5,53.2,29.97,NNE,21,4.0,9.0,74,0.00,,---,0.00,19.00,VWS V14.01,2013-06-13 11:22:00,
2013-06-13 06:27:00,61.5,53.2,29.96,NNE,25,5.0,9.0,74,0.00,,---,0.00,21.00,VWS V14.01,2013-06-13 11:27:00,
2013-06-13 06:30:00,61.5,53.2,29.96,NNE,33,4.0,9.0,74,0.00,,---,0.00,23.00,VWS V14.01,2013-06-13 11:30:00,
2013-06-13 06:32:00,61.5,53.2,29.96,NE,41,3.0,6.0,74,0.00,,---,0.00,23.00,VWS V14.01,2013-06-13 11:32:00,
2013-06-13 06:37:00,61.3,53.0,29.96,NNE,30,4.0,10.0,74,0.00,,---,0.00,28.00,VWS V14.01,2013-06-13 11:37:00,
2013-06-13 06:42:00,61.3,53.0,29.96,NE,51,4.0,10.0,74,0.00,,---,0.00,30.00,VWS V14.01,2013-06-13 11:42:00,
2013-06-13 06:47:00,61.3,53.3,29.96,NE,45,3.0,10.0,75,0.00,,---,0.00,49.00,VWS V14.01,2013-06-13 11:47:00,
2013-06-13 06:52:00,61.3,53.0,29.96,NE,51,4.0,10.0,74,0.00,,---,0.00,69.00,VWS V14.01,2013-06-13 11:52:00,
2013-06-13 06:57:00,61.5,53.2,29.96,NNE,32,4.0,10.0,74,0.00,,---,0.00,84.00,VWS V14.01,2013-06-13 11:57:00,
2013-06-13 07:00:00,61.6,52.9,29.97,NE,35,1.0,10.0,73,0.00,,---,0.00,93.00,VWS V14.01,2013-06-13 12:00:00,
2013-06-13 07:02:00,61.8,53.1,29.97,North,360,4.0,6.0,73,0.00,,---,0.00,98.00,VWS V14.01,2013-06-13 12:02:00,
2013-06-13 07:07:00,62.0,53.3,29.97,North,10,1.0,6.0,73,0.00,,---,0.00,111.00,VWS V14.01,2013-06-13 12:07:00,
2013-06-13 07:12:00,62.4,53.3,29.98,North,10,0.0,6.0,72,0.00,,---,0.00,128.00,VWS V14.01,2013-06-13 12:12:00,
2013-06-13 07:17:00,62.6,53.1,29.98,North,10,3.0,6.0,71,0.00,,---,0.00,142.00,VWS V14.01,2013-06-13 12:17:00,
2013-06-13 07:22:00,62.6,52.7,29.98,North,5,4.0,6.0,70,0.00,,---,0.00,158.00,VWS V14.01,2013-06-13 12:22:00,
2013-06-13 07:27:00,63.1,53.6,29.97,NNE,18,2.0,6.0,71,0.00,,---,0.00,163.00,VWS V14.01,2013-06-13 12:27:00,
2013-06-13 07:30:00,63.1,53.2,29.97,NNE,18,3.0,6.0,70,0.00,,---,0.00,174.00,VWS V14.01,2013-06-13 12:30:00,
2013-06-13 07:32:00,63.1,52.8,29.97,NNE,30,5.0,7.0,69,0.00,,---,0.00,185.00,VWS V14.01,2013-06-13 12:32:00,
2013-06-13 07:37:00,63.1,53.2,29.98,NE,48,2.0,7.0,70,0.00,,---,0.00,193.00,VWS V14.01,2013-06-13 12:37:00,
2013-06-13 07:42:00,63.1,53.2,29.98,NE,53,6.0,8.0,70,0.00,,---,0.00,206.00,VWS V14.01,2013-06-13 12:42:00,
2013-06-13 07:47:00,63.2,53.3,29.98,NNE,22,5.0,8.0,70,0.00,,---,0.00,218.00,VWS V14.01,2013-06-13 12:47:00,
2013-06-13 07:52:00,63.4,53.5,29.98,NNE,20,5.0,8.0,70,0.00,,---,0.00,232.00,VWS V14.01,2013-06-13 12:52:00,
2013-06-13 07:57:00,63.5,53.2,29.98,NE,51,7.0,10.0,69,0.00,,---,0.00,248.00,VWS V14.01,2013-06-13 12:57:00,
2013-06-13 08:00:00,63.4,53.5,29.98,NE,42,6.0,12.0,70,0.00,,---,0.00,255.00,VWS V14.01,2013-06-13 13:00:00,
2013-06-13 08:02:00,63.5,53.5,29.98,ENE,73,7.0,11.0,70,0.00,,---,0.00,264.00,VWS V14.01,2013-06-13 13:02:00,
2013-06-13 08:07:00,63.7,53.3,29.98,ENE,78,8.0,13.0,69,0.00,,---,0.00,279.00,VWS V14.01,2013-06-13 13:07:00,
2013-06-13 08:12:00,63.9,53.9,29.98,ENE,74,6.0,13.0,70,0.00,,---,0.00,292.00,VWS V14.01,2013-06-13 13:12:00,
2013-06-13 08:17:00,64.3,53.9,29.98,ENE,75,4.0,13.0,69,0.00,,---,0.00,308.00,VWS V14.01,2013-06-13 13:17:00,
2013-06-13 08:22:00,64.7,53.9,29.98,ENE,59,11.0,14.0,68,0.00,,---,0.00,320.00,VWS V14.01,2013-06-13 13:22:00,
2013-06-13 08:27:00,64.7,54.3,29.98,NE,52,4.0,14.0,69,0.00,,---,0.00,334.00,VWS V14.01,2013-06-13 13:27:00,
2013-06-13 08:30:00,65.0,53.8,29.98,ESE,117,6.0,14.0,67,0.00,,---,0.00,341.00,VWS V14.01,2013-06-13 13:30:00,
2013-06-13 08:32:00,65.2,54.4,29.99,East,83,6.0,8.0,68,0.00,,---,0.00,350.00,VWS V14.01,2013-06-13 13:32:00,
2013-06-13 08:37:00,65.3,54.1,29.98,ENE,63,13.0,16.0,67,0.00,,---,0.00,359.00,VWS V14.01,2013-06-13 13:37:00,
2013-06-13 08:42:00,65.3,54.1,29.98,NE,47,7.0,16.0,67,0.00,,---,0.00,378.00,VWS V14.01,2013-06-13 13:42:00,
2013-06-13 08:47:00,65.6,54.0,29.99,ENE,59,7.0,16.0,66,0.00,,---,0.00,394.00,VWS V14.01,2013-06-13 13:47:00,
2013-06-13 08:52:00,65.6,54.0,29.99,ENE,68,6.0,16.0,66,0.00,,---,0.00,404.00,VWS V14.01,2013-06-13 13:52:00,
2013-06-13 08:57:00,66.0,53.9,29.99,NE,48,6.0,16.0,65,0.00,,---,0.00,418.00,VWS V14.01,2013-06-13 13:57:00,
2013-06-13 09:00:00,66.0,53.9,29.99,NE,45,5.0,16.0,65,0.00,,---,0.00,424.00,VWS V14.01,2013-06-13 14:00:00,
2013-06-13 09:03:00,66.0,53.9,29.99,NE,40,6.0,11.0,65,0.00,,---,0.00,432.00,VWS V14.01,2013-06-13 14:03:00,
2013-06-13 09:08:00,66.1,54.0,29.99,ENE,76,5.0,14.0,65,0.00,,---,0.00,445.00,VWS V14.01,2013-06-13 14:08:00,
2013-06-13 09:13:00,66.8,54.2,29.99,NE,43,5.0,14.0,64,0.00,,---,0.00,459.00,VWS V14.01,2013-06-13 14:13:00,
2013-06-13 09:18:00,67.3,54.3,29.98,East,90,12.0,14.0,63,0.00,,---,0.00,471.00,VWS V14.01,2013-06-13 14:18:00,
2013-06-13 09:23:00,67.3,54.7,29.98,ENE,61,6.0,14.0,64,0.00,,---,0.00,485.00,VWS V14.01,2013-06-13 14:23:00,
2013-06-13 09:28:00,67.9,55.3,29.98,ENE,74,7.0,14.0,64,0.00,,---,0.00,499.00,VWS V14.01,2013-06-13 14:28:00,
2013-06-13 09:30:00,68.3,54.3,29.98,East,82,11.0,14.0,61,0.00,,---,0.00,503.00,VWS V14.01,2013-06-13 14:30:00,
2013-06-13 09:33:00,68.1,54.2,29.98,ENE,76,6.0,14.0,61,0.00,,---,0.00,513.00,VWS V14.01,2013-06-13 14:33:00,
2013-06-13 09:38:00,68.1,54.2,29.99,ENE,73,11.0,14.0,61,0.00,,---,0.00,526.00,VWS V14.01,2013-06-13 14:38:00,
2013-06-13 09:43:00,68.3,54.3,29.99,ENE,57,11.0,14.0,61,0.00,,---,0.00,540.00,VWS V14.01,2013-06-13 14:43:00,
2013-06-13 09:48:00,68.4,54.4,29.99,NE,44,11.0,14.0,61,0.00,,---,0.00,552.00,VWS V14.01,2013-06-13 14:48:00,
2013-06-13 09:53:00,68.8,54.4,29.99,NE,51,4.0,14.0,60,0.00,,---,0.00,564.00,VWS V14.01,2013-06-13 14:53:00,
2013-06-13 09:58:00,69.4,54.5,29.99,East,98,7.0,14.0,59,0.00,,---,0.00,582.00,VWS V14.01,2013-06-13 14:58:00,
2013-06-13 10:00:00,69.9,54.9,29.99,NE,54,4.0,14.0,59,0.00,,---,0.00,589.00,VWS V14.01,2013-06-13 15:00:00,
2013-06-13 10:03:00,70.3,54.8,29.99,East,97,7.0,14.0,58,0.00,,---,0.00,603.00,VWS V14.01,2013-06-13 15:03:00,
2013-06-13 10:08:00,70.4,54.9,29.98,East,81,13.0,14.0,58,0.00,,---,0.00,612.00,VWS V14.01,2013-06-13 15:08:00,
2013-06-13 10:13:00,70.8,55.3,29.98,ESE,107,9.0,15.0,58,0.00,,---,0.00,626.00,VWS V14.01,2013-06-13 15:13:00,
2013-06-13 10:18:00,70.8,55.3,29.98,SE,127,8.0,15.0,58,0.00,,---,0.00,629.00,VWS V14.01,2013-06-13 15:18:00,
2013-06-13 10:23:00,70.6,55.1,29.98,East,101,8.0,18.0,58,0.00,,---,0.00,577.00,VWS V14.01,2013-06-13 15:23:00,
2013-06-13 10:28:00,70.9,54.4,29.98,East,93,7.0,18.0,56,0.00,,---,0.00,599.00,VWS V14.01,2013-06-13 15:28:00,
2013-06-13 10:30:00,71.1,54.6,29.98,ESE,102,8.0,18.0,56,0.00,,---,0.00,647.00,VWS V14.01,2013-06-13 15:30:00,
2013-06-13 10:33:00,71.3,54.3,29.98,ESE,120,12.0,14.0,55,0.00,,---,0.00,671.00,VWS V14.01,2013-06-13 15:33:00,
2013-06-13 10:38:00,71.6,55.1,29.97,East,88,8.0,14.0,56,0.00,,---,0.00,679.00,VWS V14.01,2013-06-13 15:38:00,
2013-06-13 10:43:00,71.3,55.3,29.98,East,94,8.0,14.0,57,0.00,,---,0.00,686.00,VWS V14.01,2013-06-13 15:43:00,
2013-06-13 10:48:00,72.1,56.5,29.97,SE,145,11.0,15.0,58,0.00,,---,0.00,668.00,VWS V14.01,2013-06-13 15:48:00,
2013-06-13 10:53:00,72.5,55.4,29.98,NE,34,3.0,15.0,55,0.00,,---,0.00,698.00,VWS V14.01,2013-06-13 15:53:00,
2013-06-13 10:58:00,73.0,54.9,29.98,East,96,14.0,15.0,53,0.00,,---,0.00,715.00,VWS V14.01,2013-06-13 15:58:00,
2013-06-13 11:00:00,73.0,55.4,29.98,ESE,120,14.0,15.0,54,0.00,,---,0.00,712.00,VWS V14.01,2013-06-13 16:00:00,
2013-06-13 11:03:00,72.8,54.7,29.97,ESE,107,11.0,15.0,53,0.00,,---,0.00,728.00,VWS V14.01,2013-06-13 16:03:00,
2013-06-13 11:08:00,73.2,55.6,29.97,ESE,115,12.0,15.0,54,0.00,,---,0.00,740.00,VWS V14.01,2013-06-13 16:08:00,
2013-06-13 11:13:00,73.5,56.4,29.97,NNW,332,1.0,15.0,55,0.00,,---,0.00,754.00,VWS V14.01,2013-06-13 16:13:00,
2013-06-13 11:18:00,73.9,55.7,29.97,East,81,12.0,15.0,53,0.00,,---,0.00,742.00,VWS V14.01,2013-06-13 16:18:00,
2013-06-13 11:23:00,73.7,56.5,29.98,ENE,77,7.0,15.0,55,0.00,,---,0.00,773.00,VWS V14.01,2013-06-13 16:23:00,
2013-06-13 11:28:00,74.2,56.0,29.98,East,96,4.0,15.0,53,0.00,,---,0.00,758.00,VWS V14.01,2013-06-13 16:28:00,
2013-06-13 11:30:00,74.4,56.2,29.98,East,86,4.0,15.0,53,0.00,,---,0.00,779.00,VWS V14.01,2013-06-13 16:30:00,
2013-06-13 11:33:00,74.7,55.9,29.97,ESE,103,7.0,12.0,52,0.00,,---,0.00,780.00,VWS V14.01,2013-06-13 16:33:00,
2013-06-13 11:38:00,75.1,57.3,29.97,East,96,8.0,14.0,54,0.00,,---,0.00,784.00,VWS V14.01,2013-06-13 16:38:00,
2013-06-13 11:43:00,75.3,55.9,29.97,ESE,115,4.0,15.0,51,0.00,,---,0.00,823.00,VWS V14.01,2013-06-13 16:43:00,
2013-06-13 11:48:00,75.4,56.6,29.97,ESE,117,12.0,18.0,52,0.00,,---,0.00,849.00,VWS V14.01,2013-06-13 16:48:00,
2013-06-13 11:53:00,75.8,55.9,29.97,SE,129,8.0,18.0,50,0.00,,---,0.00,884.00,VWS V14.01,2013-06-13 16:53:00,
2013-06-13 11:58:00,76.8,57.3,29.97,East,82,6.0,18.0,51,0.00,,---,0.00,900.00,VWS V14.01,2013-06-13 16:58:00,
2013-06-13 12:00:00,76.8,56.8,29.97,ESE,109,6.0,18.0,50,0.00,,---,0.00,900.00,VWS V14.01,2013-06-13 17:00:00,
2013-06-13 12:03:00,76.5,57.6,29.97,ESE,107,4.0,11.0,52,0.00,,---,0.00,304.00,VWS V14.01,2013-06-13 17:03:00,
2013-06-13 12:08:00,76.5,56.5,29.97,SSE,161,8.0,14.0,50,0.00,,---,0.00,285.00,VWS V14.01,2013-06-13 17:08:00,
2013-06-13 12:13:00,76.1,57.2,29.97,ESE,119,7.0,14.0,52,0.00,,---,0.00,932.00,VWS V14.01,2013-06-13 17:13:00,
2013-06-13 12:18:00,76.7,57.2,29.97,ESE,108,12.0,15.0,51,0.00,,---,0.00,868.00,VWS V14.01,2013-06-13 17:18:00,
2013-06-13 12:23:00,76.8,56.2,29.97,ESE,106,9.0,15.0,49,0.00,,---,0.00,884.00,VWS V14.01,2013-06-13 17:23:00,
2013-06-13 12:28:00,76.8,56.8,29.96,ESE,104,7.0,15.0,50,0.00,,---,0.00,886.00,VWS V14.01,2013-06-13 17:28:00,
2013-06-13 12:30:00,76.8,57.9,29.96,ESE,105,8.0,15.0,52,0.00,,---,0.00,898.00,VWS V14.01,2013-06-13 17:30:00,
2013-06-13 12:34:00,76.8,57.3,29.96,SE,132,8.0,12.0,51,0.00,,---,0.00,881.00,VWS V14.01,2013-06-13 17:34:00,
2013-06-13 12:39:00,77.2,57.7,29.96,ENE,76,3.0,14.0,51,0.00,,---,0.00,951.00,VWS V14.01,2013-06-13 17:39:00,
2013-06-13 12:44:00,77.7,56.5,29.95,ENE,74,5.0,15.0,48,0.00,,---,0.00,837.00,VWS V14.01,2013-06-13 17:44:00,
2013-06-13 12:49:00,77.4,57.9,29.95,ESE,103,6.0,17.0,51,0.00,,---,0.00,949.00,VWS V14.01,2013-06-13 17:49:00,
2013-06-13 12:54:00,77.6,57.5,29.95,SSE,158,6.0,17.0,50,0.00,,---,0.00,830.00,VWS V14.01,2013-06-13 17:54:00,
2013-06-13 12:59:00,78.6,58.4,29.95,SE,140,8.0,17.0,50,0.00,,---,0.00,956.00,VWS V14.01,2013-06-13 17:59:00,
2013-06-13 13:00:00,78.8,58.0,29.95,SSE,165,6.0,17.0,49,0.00,,---,0.00,954.00,VWS V14.01,2013-06-13 18:00:00,
2013-06-13 13:04:00,79.6,58.2,29.95,ESE,105,9.0,11.0,48,0.00,,---,0.00,909.00,VWS V14.01,2013-06-13 18:04:00,
2013-06-13 13:09:00,79.0,57.7,29.95,SE,142,6.0,14.0,48,0.00,,---,0.00,937.00,VWS V14.01,2013-06-13 18:09:00,
2013-06-13 13:14:00,79.0,57.7,29.95,ESE,115,11.0,14.0,48,0.00,,---,0.00,895.00,VWS V14.01,2013-06-13 18:14:00,
2013-06-13 13:19:00,79.0,57.7,29.95,ESE,102,13.0,16.0,48,0.00,,---,0.00,853.00,VWS V14.01,2013-06-13 18:19:00,
2013-06-13 13:24:00,79.0,57.1,29.94,East,98,5.0,16.0,47,0.00,,---,0.00,907.00,VWS V14.01,2013-06-13 18:24:00,
2013-06-13 13:29:00,79.0,57.7,29.94,East,86,6.0,16.0,48,0.00,,---,0.00,940.00,VWS V14.01,2013-06-13 18:29:00,
2013-06-13 13:30:00,79.0,58.2,29.94,ESE,109,12.0,16.0,49,0.00,,---,0.00,940.00,VWS V14.01,2013-06-13 18:30:00,
2013-06-13 13:34:00,79.4,58.0,29.95,ESE,111,12.0,12.0,48,0.00,,---,0.00,930.00,VWS V14.01,2013-06-13 18:34:00,
2013-06-13 13:39:00,79.4,56.8,29.94,ESE,122,12.0,18.0,46,0.00,,---,0.00,902.00,VWS V14.01,2013-06-13 18:39:00,
2013-06-13 13:44:00,79.6,57.0,29.94,SE,146,7.0,18.0,46,0.00,,---,0.00,682.00,VWS V14.01,2013-06-13 18:44:00,
2013-06-13 13:49:00,79.9,58.5,29.94,East,86,8.0,18.0,48,0.00,,---,0.00,186.00,VWS V14.01,2013-06-13 18:49:00,
2013-06-13 13:54:00,80.3,57.0,29.93,ESE,105,8.0,18.0,45,0.00,,---,0.00,183.00,VWS V14.01,2013-06-13 18:54:00,
2013-06-13 13:59:00,80.3,57.7,29.93,East,84,6.0,18.0,46,0.00,,---,0.00,167.00,VWS V14.01,2013-06-13 18:59:00,
2013-06-13 14:00:00,80.3,58.3,29.93,East,88,8.0,18.0,47,0.00,,---,0.00,167.00,VWS V14.01,2013-06-13 19:00:00,
2013-06-13 14:04:00,80.9,57.6,29.93,SE,132,13.0,15.0,45,0.00,,---,0.00,156.00,VWS V14.01,2013-06-13 19:04:00,
2013-06-13 14:09:00,81.1,57.2,29.92,East,91,8.0,15.0,44,0.00,,---,0.00,142.00,VWS V14.01,2013-06-13 19:09:00,
2013-06-13 14:14:00,81.4,57.4,29.92,ESE,109,8.0,15.0,44,0.00,,---,0.00,123.00,VWS V14.01,2013-06-13 19:14:00,
2013-06-13 14:19:00,81.6,58.2,29.92,ESE,122,11.0,15.0,45,0.00,,---,0.00,116.00,VWS V14.01,2013-06-13 19:19:00,
2013-06-13 14:24:00,81.4,57.4,29.91,SE,134,9.0,15.0,44,0.00,,---,0.00,116.00,VWS V14.01,2013-06-13 19:24:00,
2013-06-13 14:29:00,81.2,57.9,29.91,SE,133,9.0,15.0,45,0.00,,---,0.00,118.00,VWS V14.01,2013-06-13 19:29:00,
2013-06-13 14:30:00,81.2,58.5,29.91,SE,128,7.0,15.0,46,0.00,,---,0.00,118.00,VWS V14.01,2013-06-13 19:30:00,
2013-06-13 14:34:00,81.4,58.0,29.91,SE,143,10.0,13.0,45,0.00,,---,0.00,120.00,VWS V14.01,2013-06-13 19:34:00,
2013-06-13 14:39:00,81.6,57.0,29.90,SSE,157,10.0,15.0,43,0.00,,---,0.00,120.00,VWS V14.01,2013-06-13 19:39:00,
2013-06-13 14:44:00,82.0,58.0,29.90,ESE,123,7.0,15.0,44,0.00,,---,0.00,116.00,VWS V14.01,2013-06-13 19:44:00,
2013-06-13 14:49:00,82.0,56.0,29.90,East,92,7.0,21.0,41,0.00,,---,0.00,306.00,VWS V14.01,2013-06-13 19:49:00,
2013-06-13 14:54:00,82.2,58.8,29.90,East,97,6.0,21.0,45,0.00,,---,0.00,842.00,VWS V14.01,2013-06-13 19:54:00,
2013-06-13 14:59:00,82.6,59.1,29.90,ESE,107,7.0,21.0,45,0.00,,---,0.00,902.00,VWS V14.01,2013-06-13 19:59:00,
2013-06-13 15:00:00,82.8,59.3,29.90,SE,128,6.0,21.0,45,0.00,,---,0.00,902.00,VWS V14.01,2013-06-13 20:00:00,
2013-06-13 15:04:00,83.2,57.1,29.90,SE,136,9.0,13.0,41,0.00,,---,0.00,605.00,VWS V14.01,2013-06-13 20:04:00,
2013-06-13 15:09:00,83.0,58.9,29.90,ESE,107,8.0,13.0,44,0.00,,---,0.00,346.00,VWS V14.01,2013-06-13 20:09:00,
2013-06-13 15:14:00,82.6,57.9,29.89,ENE,69,8.0,13.0,43,0.00,,---,0.00,287.00,VWS V14.01,2013-06-13 20:14:00,
2013-06-13 15:19:00,82.4,58.3,29.89,ESE,111,12.0,20.0,44,0.00,,---,0.00,930.00,VWS V14.01,2013-06-13 20:19:00,
2013-06-13 15:24:00,83.0,57.6,29.89,ESE,116,14.0,20.0,42,0.00,,---,0.00,884.00,VWS V14.01,2013-06-13 20:24:00,
2013-06-13 15:29:00,83.2,59.0,29.88,East,93,9.0,20.0,44,0.00,,---,0.00,557.00,VWS V14.01,2013-06-13 20:29:00,
2013-06-13 15:30:00,83.2,59.0,29.88,East,98,11.0,20.0,44,0.00,,---,0.00,557.00,VWS V14.01,2013-06-13 20:30:00,
2013-06-13 15:34:00,83.8,60.2,29.88,East,98,12.0,14.0,45,0.00,,---,0.00,828.00,VWS V14.01,2013-06-13 20:34:00,
2013-06-13 15:39:00,83.8,58.3,29.89,ESE,123,6.0,15.0,42,0.00,,---,0.00,816.00,VWS V14.01,2013-06-13 20:39:00,
2013-06-13 15:44:00,84.3,58.7,29.89,East,98,9.0,15.0,42,0.00,,---,0.00,795.00,VWS V14.01,2013-06-13 20:44:00,
2013-06-13 15:49:00,84.3,59.4,29.89,East,79,0.0,15.0,43,0.00,,---,0.00,784.00,VWS V14.01,2013-06-13 20:49:00,
2013-06-13 15:55:00,84.7,58.4,29.89,SE,127,5.0,15.0,41,0.00,,---,0.00,775.00,VWS V14.01,2013-06-13 20:55:00,
2013-06-13 16:00:00,84.5,57.5,29.89,ESE,107,6.0,7.0,40,0.00,,---,0.00,765.00,VWS V14.01,2013-06-13 21:00:00,
2013-06-13 16:05:00,84.5,58.9,29.89,SSE,157,7.0,12.0,42,0.00,,---,0.00,752.00,VWS V14.01,2013-06-13 21:05:00,
2013-06-13 16:10:00,84.9,59.3,29.89,East,101,7.0,12.0,42,0.00,,---,0.00,744.00,VWS V14.01,2013-06-13 21:10:00,
2013-06-13 16:15:00,85.3,57.6,29.88,SE,129,6.0,12.0,39,0.00,,---,0.00,733.00,VWS V14.01,2013-06-13 21:15:00,
2013-06-13 16:20:00,85.1,58.8,29.88,ESE,115,19.0,19.0,41,0.00,,---,0.00,724.00,VWS V14.01,2013-06-13 21:20:00,
2013-06-13 16:25:00,84.5,58.2,29.88,ESE,113,6.0,19.0,41,0.00,,---,0.00,710.00,VWS V14.01,2013-06-13 21:25:00,
2013-06-13 16:30:00,84.9,59.9,29.87,ESE,105,2.0,12.0,43,0.00,,---,0.00,700.00,VWS V14.01,2013-06-13 21:30:00,
2013-06-13 16:36:00,85.3,59.6,29.87,ESE,105,8.0,12.0,42,0.00,,---,0.00,693.00,VWS V14.01,2013-06-13 21:36:00,
2013-06-13 16:41:00,85.1,59.5,29.87,SE,125,11.0,19.0,42,0.00,,---,0.00,675.00,VWS V14.01,2013-06-13 21:41:00,
2013-06-13 16:46:00,84.7,59.1,29.87,SE,137,6.0,19.0,42,0.00,,---,0.00,501.00,VWS V14.01,2013-06-13 21:46:00,
2013-06-13 16:51:00,84.7,59.8,29.87,SE,130,11.0,19.0,43,0.00,,---,0.00,719.00,VWS V14.01,2013-06-13 21:51:00,
2013-06-13 16:56:00,84.9,59.9,29.87,ESE,107,11.0,19.0,43,0.00,,---,0.00,684.00,VWS V14.01,2013-06-13 21:56:00,
2013-06-13 17:00:00,85.1,60.1,29.87,ESE,117,13.0,19.0,43,0.00,,---,0.00,649.00,VWS V14.01,2013-06-13 22:00:00,
2013-06-13 17:01:00,85.1,60.1,29.87,ESE,103,9.0,14.0,43,0.00,,---,0.00,643.00,VWS V14.01,2013-06-13 22:01:00,
2013-06-13 17:06:00,84.9,59.9,29.87,East,96,12.0,16.0,43,0.00,,---,0.00,612.00,VWS V14.01,2013-06-13 22:06:00,
2013-06-13 17:11:00,84.9,61.2,29.87,East,96,7.0,18.0,45,0.00,,---,0.00,610.00,VWS V14.01,2013-06-13 22:11:00,
2013-06-13 17:16:00,85.5,61.1,29.87,ESE,107,4.0,18.0,44,0.00,,---,0.00,606.00,VWS V14.01,2013-06-13 22:16:00,
2013-06-13 17:21:00,85.9,58.8,29.87,East,92,9.0,18.0,40,0.00,,---,0.00,601.00,VWS V14.01,2013-06-13 22:21:00,
2013-06-13 17:26:00,85.7,60.0,29.87,East,96,15.0,18.0,42,0.00,,---,0.00,420.00,VWS V14.01,2013-06-13 22:26:00,
2013-06-13 17:30:00,85.3,59.6,29.87,East,97,11.0,18.0,42,0.00,,---,0.00,366.00,VWS V14.01,2013-06-13 22:30:00,
2013-06-13 17:31:00,85.3,59.6,29.87,East,89,5.0,12.0,42,0.00,,---,0.00,378.00,VWS V14.01,2013-06-13 22:31:00,
2013-06-13 17:36:00,85.3,60.3,29.86,SE,137,7.0,16.0,43,0.00,,---,0.00,450.00,VWS V14.01,2013-06-13 22:36:00,
2013-06-13 17:41:00,85.1,59.5,29.87,East,92,11.0,21.0,42,0.00,,---,0.00,367.00,VWS V14.01,2013-06-13 22:41:00,
2013-06-13 17:46:00,84.9,59.9,29.87,East,94,13.0,21.0,43,0.00,,---,0.00,234.00,VWS V14.01,2013-06-13 22:46:00,
2013-06-13 17:51:00,84.5,59.6,29.87,ESE,105,16.0,21.0,43,0.00,,---,0.00,214.00,VWS V14.01,2013-06-13 22:51:00,
2013-06-13 17:56:00,84.3,59.4,29.87,East,97,9.0,21.0,43,0.00,,---,0.00,257.00,VWS V14.01,2013-06-13 22:56:00,
2013-06-13 18:00:00,84.5,59.6,29.86,ESE,113,9.0,21.0,43,0.00,,---,0.00,221.00,VWS V14.01,2013-06-13 23:00:00,
2013-06-13 18:01:00,84.5,59.6,29.86,East,88,7.0,13.0,43,0.00,,---,0.00,313.00,VWS V14.01,2013-06-13 23:01:00,
2013-06-13 18:06:00,84.7,60.4,29.86,ESE,108,15.0,19.0,44,0.00,,---,0.00,425.00,VWS V14.01,2013-06-13 23:06:00,
2013-06-13 18:11:00,84.5,60.2,29.86,ESE,103,13.0,19.0,44,0.00,,---,0.00,404.00,VWS V14.01,2013-06-13 23:11:00,
2013-06-13 18:16:00,84.5,60.2,29.86,ESE,104,9.0,19.0,44,0.00,,---,0.00,343.00,VWS V14.01,2013-06-13 23:16:00,
2013-06-13 18:21:00,84.3,60.7,29.86,East,94,11.0,19.0,45,0.00,,---,0.00,292.00,VWS V14.01,2013-06-13 23:21:00,
2013-06-13 18:26:00,84.1,60.5,29.86,SE,127,12.0,19.0,45,0.00,,---,0.00,443.00,VWS V14.01,2013-06-13 23:26:00,
2013-06-13 18:30:00,84.3,61.3,29.86,East,98,16.0,19.0,46,0.00,,---,0.00,417.00,VWS V14.01,2013-06-13 23:30:00,
2013-06-13 18:31:00,84.3,61.3,29.85,East,91,13.0,19.0,46,0.00,,---,0.00,410.00,VWS V14.01,2013-06-13 23:31:00,
2013-06-13 18:36:00,84.1,62.3,29.86,East,89,13.0,19.0,48,0.00,,---,0.00,387.00,VWS V14.01,2013-06-13 23:36:00,
2013-06-13 18:41:00,83.8,60.2,29.86,ESE,121,12.0,23.0,45,0.00,,---,0.00,366.00,VWS V14.01,2013-06-13 23:41:00,
2013-06-13 18:46:00,83.8,60.8,29.85,East,92,11.0,23.0,46,0.00,,---,0.00,341.00,VWS V14.01,2013-06-13 23:46:00,
2013-06-13 18:51:00,83.6,61.3,29.85,ESE,102,5.0,23.0,47,0.00,,---,0.00,323.00,VWS V14.01,2013-06-13 23:51:00,
2013-06-13 18:56:00,83.6,61.3,29.85,ESE,104,14.0,23.0,47,0.00,,---,0.00,308.00,VWS V14.01,2013-06-13 23:56:00,
2013-06-13 19:00:00,83.4,60.5,29.85,East,87,18.0,23.0,46,0.00,,---,0.00,295.00,VWS V14.01,2013-06-14 00:00:00,
2013-06-13 19:01:00,83.4,61.1,29.85,ESE,114,12.0,18.0,47,0.00,,---,0.00,292.00,VWS V14.01,2013-06-14 00:01:00,
2013-06-13 19:06:00,83.2,61.5,29.85,East,101,9.0,18.0,48,0.00,,---,0.00,276.00,VWS V14.01,2013-06-14 00:06:00,
2013-06-13 19:11:00,83.2,61.5,29.85,East,84,12.0,20.0,48,0.00,,---,0.00,258.00,VWS V14.01,2013-06-14 00:11:00,
2013-06-13 19:16:00,83.0,61.9,29.85,East,92,15.0,22.0,49,0.00,,---,0.00,246.00,VWS V14.01,2013-06-14 00:16:00,
2013-06-13 19:21:00,83.0,62.5,29.84,ESE,113,16.0,22.0,50,0.00,,---,0.00,232.00,VWS V14.01,2013-06-14 00:21:00,
2013-06-13 19:26:00,82.8,62.3,29.84,ESE,106,16.0,22.0,50,0.00,,---,0.00,218.00,VWS V14.01,2013-06-14 00:26:00,
2013-06-13 19:30:00,82.8,62.8,29.85,ESE,110,7.0,22.0,51,0.00,,---,0.00,207.00,VWS V14.01,2013-06-14 00:30:00,
2013-06-13 19:31:00,82.6,62.1,29.84,East,82,12.0,15.0,50,0.00,,---,0.00,200.00,VWS V14.01,2013-06-14 00:31:00,
2013-06-13 19:36:00,82.4,62.5,29.85,ESE,107,11.0,19.0,51,0.00,,---,0.00,185.00,VWS V14.01,2013-06-14 00:36:00,
2013-06-13 19:41:00,82.4,63.0,29.84,East,88,11.0,19.0,52,0.00,,---,0.00,171.00,VWS V14.01,2013-06-14 00:41:00,
2013-06-13 19:46:00,82.0,63.2,29.84,East,96,8.0,19.0,53,0.00,,---,0.00,155.00,VWS V14.01,2013-06-14 00:46:00,
2013-06-13 19:51:00,81.2,63.5,29.84,ESE,123,5.0,19.0,55,0.00,,---,0.00,142.00,VWS V14.01,2013-06-14 00:51:00,
2013-06-13 19:56:00,80.7,63.0,29.84,ESE,112,12.0,19.0,55,0.00,,---,0.00,128.00,VWS V14.01,2013-06-14 00:56:00,
2013-06-13 20:00:00,80.5,63.4,29.84,ESE,107,6.0,19.0,56,0.00,,---,0.00,118.00,VWS V14.01,2013-06-14 01:00:00,
2013-06-13 20:01:00,80.3,63.2,29.84,ESE,103,11.0,14.0,56,0.00,,---,0.00,114.00,VWS V14.01,2013-06-14 01:01:00,
2013-06-13 20:06:00,80.1,63.0,29.84,East,96,4.0,15.0,56,0.00,,---,0.00,98.00,VWS V14.01,2013-06-14 01:06:00,
2013-06-13 20:11:00,79.9,63.3,29.85,East,100,6.0,15.0,57,0.00,,---,0.00,81.00,VWS V14.01,2013-06-14 01:11:00,
2013-06-13 20:16:00,79.6,63.5,29.85,ESE,102,7.0,15.0,58,0.00,,---,0.00,28.00,VWS V14.01,2013-06-14 01:16:00,
2013-06-13 20:21:00,79.2,63.7,29.85,East,93,5.0,15.0,59,0.00,,---,0.00,19.00,VWS V14.01,2013-06-14 01:21:00,
2013-06-13 20:26:00,79.0,63.5,29.85,East,96,7.0,15.0,59,0.00,,---,0.00,12.00,VWS V14.01,2013-06-14 01:26:00,
2013-06-13 20:30:00,78.8,63.3,29.85,East,101,7.0,15.0,59,0.00,,---,0.00,11.00,VWS V14.01,2013-06-14 01:30:00,
2013-06-13 20:31:00,78.8,63.8,29.85,ESE,107,6.0,7.0,60,0.00,,---,0.00,9.00,VWS V14.01,2013-06-14 01:31:00,
2013-06-13 20:36:00,78.6,63.6,29.85,East,91,6.0,8.0,60,0.00,,---,0.00,7.00,VWS V14.01,2013-06-14 01:36:00,
2013-06-13 20:41:00,78.5,63.5,29.85,ESE,115,12.0,14.0,60,0.00,,---,0.00,5.00,VWS V14.01,2013-06-14 01:41:00,
2013-06-13 20:46:00,78.3,63.3,29.85,ENE,72,3.0,14.0,60,0.00,,---,0.00,5.00,VWS V14.01,2013-06-14 01:46:00,
2013-06-13 20:51:00,78.1,63.1,29.85,ESE,121,8.0,14.0,60,0.00,,---,0.00,0.00,VWS V14.01,2013-06-14 01:51:00,
2013-06-13 20:56:00,77.9,62.9,29.85,ESE,103,8.0,14.0,60,0.00,,---,0.00,0.00,VWS V14.01,2013-06-14 01:56:00,
2013-06-13 21:00:00,77.7,62.7,29.85,ESE,103,5.0,14.0,60,0.00,,---,0.00,0.00,VWS V14.01,2013-06-14 02:00:00,
2013-06-13 21:01:00,77.7,62.7,29.85,ESE,112,8.0,15.0,60,0.00,,---,0.00,0.00,VWS V14.01,2013-06-14 02:01:00,
2013-06-13 21:06:00,77.4,62.9,29.85,ESE,119,13.0,15.0,61,0.00,,---,0.00,0.00,VWS V14.01,2013-06-14 02:06:00,
2013-06-13 21:11:00,77.2,62.7,29.85,ESE,102,9.0,15.0,61,0.00,,---,0.00,0.00,VWS V14.01,2013-06-14 02:11:00,
2013-06-13 21:16:00,77.0,63.0,29.84,SE,141,8.0,16.0,62,0.00,,---,0.00,0.00,VWS V14.01,2013-06-14 02:16:00,
2013-06-13 21:21:00,76.8,62.8,29.84,East,96,7.0,16.0,62,0.00,,---,0.00,0.00,VWS V14.01,2013-06-14 02:21:00,
2013-06-13 21:26:00,76.7,62.7,29.85,ESE,103,9.0,16.0,62,0.00,,---,0.00,0.00,VWS V14.01,2013-06-14 02:26:00,
2013-06-13 21:30:00,76.7,62.7,29.85,East,96,7.0,16.0,62,0.00,,---,0.00,0.00,VWS V14.01,2013-06-14 02:30:00,
2013-06-13 21:31:00,76.5,62.5,29.85,ESE,116,9.0,11.0,62,0.00,,---,0.00,0.00,VWS V14.01,2013-06-14 02:31:00,
2013-06-13 21:36:00,76.3,62.8,29.85,ESE,117,9.0,11.0,63,0.00,,---,0.00,0.00,VWS V14.01,2013-06-14 02:36:00,
2013-06-13 21:41:00,76.1,63.0,29.85,East,98,8.0,12.0,64,0.00,,---,0.00,0.00,VWS V14.01,2013-06-14 02:41:00,
2013-06-13 21:46:00,76.0,63.0,29.85,ESE,115,11.0,12.0,64,0.00,,---,0.00,0.00,VWS V14.01,2013-06-14 02:46:00,
2013-06-13 21:52:00,75.6,63.0,29.85,ESE,107,8.0,13.0,65,0.00,,---,0.00,0.00,VWS V14.01,2013-06-14 02:52:00,
2013-06-13 21:57:00,75.4,62.8,29.85,ESE,118,8.0,13.0,65,0.00,,---,0.00,0.00,VWS V14.01,2013-06-14 02:57:00,
2013-06-13 22:00:00,75.4,63.3,29.85,ESE,119,8.0,13.0,66,0.00,,---,0.00,0.00,VWS V14.01,2013-06-14 03:00:00,
2013-06-13 22:02:00,75.3,63.2,29.85,ESE,120,7.0,13.0,66,0.00,,---,0.00,0.00,VWS V14.01,2013-06-14 03:02:00,
2013-06-13 22:07:00,75.3,63.2,29.85,ESE,111,8.0,13.0,66,0.00,,---,0.00,0.00,VWS V14.01,2013-06-14 03:07:00,
2013-06-13 22:12:00,75.1,63.0,29.85,SE,125,8.0,13.0,66,0.00,,---,0.00,0.00,VWS V14.01,2013-06-14 03:12:00,
2013-06-13 22:17:00,75.1,63.0,29.85,ESE,115,14.0,14.0,66,0.00,,---,0.00,0.00,VWS V14.01,2013-06-14 03:17:00,
2013-06-13 22:22:00,75.1,62.5,29.85,SE,133,9.0,16.0,65,0.00,,---,0.00,0.00,VWS V14.01,2013-06-14 03:22:00,
2013-06-13 22:27:00,75.3,62.7,29.85,SE,134,12.0,16.0,65,0.00,,---,0.00,0.00,VWS V14.01,2013-06-14 03:27:00,
2013-06-13 22:30:00,75.3,62.7,29.85,SE,134,11.0,16.0,65,0.00,,---,0.00,0.00,VWS V14.01,2013-06-14 03:30:00,
2013-06-13 22:32:00,75.3,62.7,29.85,SE,129,8.0,11.0,65,0.00,,---,0.00,0.00,VWS V14.01,2013-06-14 03:32:00,
2013-06-13 22:37:00,75.3,62.7,29.85,SE,135,14.0,15.0,65,0.00,,---,0.00,0.00,VWS V14.01,2013-06-14 03:37:00,
2013-06-13 22:42:00,75.3,62.7,29.85,SE,129,8.0,15.0,65,0.00,,---,0.00,0.00,VWS V14.01,2013-06-14 03:42:00,
2013-06-13 22:47:00,75.1,62.5,29.85,SSE,152,10.0,15.0,65,0.00,,---,0.00,0.00,VWS V14.01,2013-06-14 03:47:00,
2013-06-13 22:52:00,75.1,62.5,29.86,SSE,152,12.0,15.0,65,0.00,,---,0.00,0.00,VWS V14.01,2013-06-14 03:52:00,
2013-06-13 22:57:00,75.3,62.7,29.86,SSE,164,7.0,15.0,65,0.00,,---,0.00,0.00,VWS V14.01,2013-06-14 03:57:00,
2013-06-13 23:00:00,75.3,62.7,29.86,SSE,167,10.0,15.0,65,0.00,,---,0.00,0.00,VWS V14.01,2013-06-14 04:00:00,
2013-06-13 23:01:00,75.3,62.3,29.86,SE,146,6.0,11.0,64,0.00,,---,0.00,0.00,VWS V14.01,2013-06-14 04:01:00,
2013-06-13 23:06:00,75.4,62.4,29.86,SSE,167,12.0,14.0,64,0.00,,---,0.00,0.00,VWS V14.01,2013-06-14 04:06:00,
2013-06-13 23:11:00,75.6,62.1,29.85,SSE,161,9.0,15.0,63,0.00,,---,0.00,0.00,VWS V14.01,2013-06-14 04:11:00,
2013-06-13 23:16:00,75.8,62.3,29.85,South,172,8.0,15.0,63,0.00,,---,0.00,0.00,VWS V14.01,2013-06-14 04:16:00,
2013-06-13 23:21:00,75.8,62.3,29.85,SSE,157,7.0,15.0,63,0.00,,---,0.00,0.00,VWS V14.01,2013-06-14 04:21:00,
2013-06-13 23:26:00,75.8,62.3,29.85,South,169,7.0,15.0,63,0.00,,---,0.00,0.00,VWS V14.01,2013-06-14 04:26:00,
2013-06-13 23:30:00,75.8,62.3,29.85,SSE,158,10.0,15.0,63,0.00,,---,0.00,0.00,VWS V14.01,2013-06-14 04:30:00,
2013-06-13 23:31:00,75.6,62.1,29.85,SSE,155,9.0,15.0,63,0.00,,---,0.00,0.00,VWS V14.01,2013-06-14 04:31:00,
2013-06-13 23:36:00,75.6,62.6,29.85,South,171,5.0,15.0,64,0.00,,---,0.00,0.00,VWS V14.01,2013-06-14 04:36:00,
2013-06-13 23:41:00,75.4,62.4,29.85,SSE,163,12.0,15.0,64,0.00,,---,0.00,0.00,VWS V14.01,2013-06-14 04:41:00,
2013-06-13 23:46:00,75.3,62.7,29.85,South,179,8.0,15.0,65,0.00,,---,0.00,0.00,VWS V14.01,2013-06-14 04:46:00,
2013-06-13 23:51:00,75.3,62.7,29.85,SSE,157,8.0,15.0,65,0.00,,---,0.00,0.00,VWS V14.01,2013-06-14 04:51:00,
2013-06-13 23:56:00,75.3,62.7,29.85,South,182,6.0,15.0,65,0.00,,---,0.00,0.00,VWS V14.01,2013-06-14 04:56:00,